Flag for Poland Weather past 2 weeks in Poznan, Poland

Now
37 °F

Clear.


Feels Like: 30 °F
Forecast: 35 / 43 °F
Wind: 10 mph from Southwest

Location: Poznan Airport

Current Time: Mar 31, 2015 at 6:12:56 AM

Latest Report: Mar 31, 2015 at 5:30 AM


Visibility: 10 mi

Pressure: 29.53 "Hg

Humidity: 70%

Dew point: 28 °F

Location of PoznanLocation

Historic Weather in Poznan — Graph

°F

Poznan temperature yesterday

Maximum temperature yesterday: 48 °F (at 12:00 AM)
Minimum temperature yesterday: 41 °F (at 6:30 PM)
Average temperature yesterday: 45 °F

Past Weeks' High & Low Weather Summary

 TemperatureHumidityPressure
High63 °F (Mar 25, 1:30 PM)94% (Mar 26, 9:30 AM)30.60 "Hg (Mar 26, 9:30 AM)
Low25 °F (Mar 20, 4:30 AM)22% (Mar 18, 1:30 PM)29.06 "Hg (Mar 30, 3:00 AM)
Average44 °F62%30.02 "Hg
* Reported Mar 16 4:00 AM — Mar 31 5:00 AM, Poznan, Weather by CustomWeather, © 2015

Note: Actual official high and low records may vary slightly from our data, if they occured in-between our weather recording intervals... More about our weather records

Advertising

Poznan weather history for previous 24 hours

 ConditionsComfort  
Time TempWeatherWind HumidityBarometerVisibility
5:00 AM
Tue, Mar 31
37 °FClear.12 mph75%29.53 "Hg10 mi
4:30 AM39 °FPassing clouds.15 mph65%29.56 "HgN/A
4:00 AM39 °FPassing clouds.15 mph65%29.56 "HgN/A
3:30 AM39 °FPassing clouds.17 mph65%29.59 "HgN/A
3:00 AM41 °FPassing clouds.18 mph66%29.59 "HgN/A
2:30 AM39 °FPassing clouds.18 mph70%29.59 "HgN/A
2:00 AM41 °FPassing clouds.21 mph66%29.56 "HgN/A
1:30 AM41 °FPassing clouds.18 mph70%29.56 "HgN/A
1:00 AM41 °FPassing clouds.22 mph70%29.56 "HgN/A
12:30 AM41 °FSprinkles. Passing clouds.22 mph70%29.53 "HgN/A
12:00 AM41 °FPassing clouds.23 mph70%29.53 "HgN/A
11:00 PM
Mon, Mar 30
41 °FPartly cloudy.22 mph81%29.50 "HgN/A
10:30 PM43 °FSprinkles. Partly cloudy.20 mph76%29.50 "HgN/A
10:00 PM41 °FSprinkles. Partly cloudy.21 mph81%29.50 "HgN/A
9:30 PM43 °FPartly cloudy.20 mph76%29.47 "HgN/A
9:00 PM43 °FPartly cloudy.20 mph76%29.45 "HgN/A
8:30 PM41 °FPassing clouds.20 mph87%29.45 "HgN/A
8:00 PM41 °FScattered clouds.17 mph87%29.42 "HgN/A
7:30 PM41 °FPassing clouds.18 mph81%29.42 "HgN/A
7:00 PM41 °FPassing clouds.18 mph87%29.39 "HgN/A
6:30 PM41 °FScattered clouds.16 mph87%29.36 "HgN/A
6:00 PM45 °FScattered clouds.20 mph76%29.33 "HgN/A
5:30 PM46 °FScattered clouds.24 mph66%29.33 "HgN/A
5:00 PM46 °FSprinkles. Scattered clouds.17 mph71%29.30 "HgN/A
4:30 PM46 °FScattered clouds.21 mph71%29.30 "HgN/A
4:00 PM46 °FSprinkles. Scattered clouds.21 mph66%29.27 "HgN/A
3:30 PM45 °FScattered clouds.24 mph81%29.27 "HgN/A
3:00 PM48 °FPartly sunny.22 mph58%29.24 "HgN/A
2:30 PM48 °FPartly sunny.23 mph62%29.24 "HgN/A
2:00 PM46 °FPartly sunny.23 mph62%29.24 "HgN/A
1:30 PM46 °FPartly sunny.24 mph66%29.21 "HgN/A
1:00 PM45 °FBroken clouds.20 mph76%29.21 "HgN/A
12:30 PM46 °FScattered clouds.26 mph66%29.18 "HgN/A
12:00 PM48 °FPartly sunny.23 mph62%29.18 "HgN/A
11:30 AM48 °FPartly sunny.23 mph62%29.18 "HgN/A
11:00 AM48 °FPartly sunny.21 mph58%29.18 "HgN/A
10:30 AM46 °FPartly sunny.26 mph57%29.15 "HgN/A
10:00 AM46 °FPartly sunny.30 mph62%29.15 "HgN/A
9:30 AM45 °FPartly sunny.28 mph66%29.15 "HgN/A
9:00 AM45 °FPartly sunny.23 mph66%29.15 "HgN/A
8:30 AM45 °FPartly sunny.23 mph66%29.15 "HgN/A
8:00 AM45 °FPartly sunny.22 mph71%29.12 "HgN/A
7:30 AM45 °FPassing clouds.26 mph71%29.12 "HgN/A
7:00 AM45 °FPassing clouds.23 mph76%29.12 "HgN/A
6:30 AM43 °FSprinkles. Partly cloudy.22 mph87%29.12 "HgN/A
6:00 AM43 °FSprinkles. Partly cloudy.18 mph87%29.09 "HgN/A
Weather by CustomWeather, © 2015

See weather overviewHow to use our weather pages